Flag for United Kingdom Weather past 2 weeks in Canvey Island, England, United Kingdom

Now
64 °F

Passing clouds.


Feels Like: 64 °F
Forecast: 51 / 67 °F
Wind: 9 mph from West

Location: Southend Airport-On-Sea

Current Time: Aug 30, 2014 at 8:02:28 PM

Latest Report: Aug 30, 2014 at 7:20 PM


Visibility: N/A

Pressure: 29.98 "Hg

Humidity: 60%

Dew point: 50 °F

Location of Canvey IslandLocation

Historic Weather in Canvey Island — Graph

°F

Canvey Island temperature yesterday

Maximum temperature yesterday: 70 °F (at 3:20 PM)
Minimum temperature yesterday: 57 °F (at 12:50 AM)
Average temperature yesterday: 63 °F

Past Weeks' High & Low Weather Summary

 TemperatureHumidityPressure
High73 °F (Aug 28, 3:20 PM)94% (Aug 15, 11:20 PM)30.15 "Hg (Aug 15, 11:20 PM)
Low45 °F (Aug 21, 4:50 AM)37% (Aug 20, 5:50 PM)29.53 "Hg (Aug 25, 9:50 PM)
Average60 °F69%29.90 "Hg
* Reported Aug 15 5:20 PM — Aug 30 5:50 PM, Canvey Island, Weather by CustomWeather, © 2014

Note: Actual official high and low records may vary slightly from our data, if they occured in-between our weather recording intervals... More about our weather records

Advertising

Canvey Island weather history for previous 24 hours

 ConditionsComfort  
Time TempWeatherWind HumidityBarometerVisibility
5:50 PM
Aug 30
64 °FPassing clouds.9 mph60%29.98 "HgN/A
5:20 PM66 °FPassing clouds.9 mph60%29.98 "HgN/A
4:50 PM66 °FPassing clouds.10 mph56%29.98 "HgN/A
4:20 PM66 °FPassing clouds.12 mph56%29.98 "HgN/A
3:50 PM66 °FPartly sunny.12 mph56%29.98 "HgN/A
3:20 PM66 °FPassing clouds.12 mph56%29.98 "HgN/A
2:50 PM68 °FScattered clouds.14 mph56%29.98 "HgN/A
2:20 PM66 °FScattered clouds.14 mph60%29.98 "HgN/A
1:20 PM66 °FScattered clouds.13 mph60%29.98 "HgN/A
12:50 PM68 °FScattered clouds.14 mph56%29.98 "HgN/A
12:20 PM66 °FPassing clouds.16 mph56%29.95 "HgN/A
11:50 AM66 °FPassing clouds.16 mph56%29.95 "HgN/A
11:20 AM64 °FPassing clouds.15 mph56%29.95 "HgN/A
10:50 AM64 °FPassing clouds.16 mph56%29.95 "HgN/A
10:20 AM63 °FPassing clouds.17 mph59%29.95 "HgN/A
9:50 AM63 °FPassing clouds.14 mph64%29.95 "HgN/A
9:20 AM61 °FPassing clouds.15 mph63%29.95 "HgN/A
8:50 AM63 °FScattered clouds.16 mph64%29.95 "HgN/A
8:20 AM63 °FPartly sunny.15 mph68%29.95 "HgN/A
7:50 AM61 °FPartly sunny.15 mph77%29.92 "HgN/A
7:20 AM63 °FSprinkles. Scattered clouds.12 mph83%29.92 "HgN/A
6:50 AM64 °FPassing clouds.13 mph83%29.92 "HgN/A
6:20 AM63 °FPassing clouds.13 mph83%29.92 "HgN/A
5:50 AM63 °FPassing clouds.15 mph77%29.89 "HgN/A
5:20 AM63 °FPassing clouds.14 mph77%29.89 "HgN/A
4:50 AM63 °FPassing clouds.14 mph77%29.89 "HgN/A
3:50 AM63 °FPassing clouds.12 mph77%29.92 "HgN/A
2:50 AM63 °FPassing clouds.12 mph77%29.92 "HgN/A
1:50 AM63 °FPassing clouds.14 mph77%29.92 "HgN/A
12:20 AM63 °FPassing clouds.16 mph77%29.92 "HgN/A
11:50 PM
Aug 29
63 °FPassing clouds.14 mph83%29.92 "HgN/A
11:20 PM61 °FPassing clouds.14 mph83%29.92 "HgN/A
10:50 PM63 °FPassing clouds.16 mph77%29.92 "HgN/A
10:20 PM63 °FPassing clouds.16 mph77%29.92 "HgN/A
8:20 PM64 °FScattered clouds.17 mph73%29.92 "HgN/A
Weather by CustomWeather, © 2014

See weather overviewHow to use our weather pages